[[{"header":{"parameterUnit":"m.s-1","parameterCategory":2,"la1":30.2991,"la2":30.254,"lo1":-89.0895,"lo2":-89.0444,"dy":0.0017,"dx":0.0017,"nx":28,"ny":28,"refTime":"2025-08-10T03:00:00:Z","depth":"0","parameterNumber":2,"parameterNumberName":"U-component_of_CURRENTS"},"data":[0,0,0,0,0,0,0,0,0,0,0,0,0,0,0,0,0,0,0,0,0,0,0,0,0,0,0,0,0,0,0,0,0,0,0,0,0,0,0,0,0,0,0,0,0,0,0,0,0,0,0,0,0,0,0,0,0,0,0.1824,0.1824,0,0.1796,0.1796,0.1795,0.1768,0.1768,0.1768,0.1768,0.174,0.1739,0.1739,0,0,0,0,0,0,0,0,0,0,0,0,0,0.1866,0.1865,0.1824,0.1824,0.1823,0.1796,0.1796,0.1795,0.1768,0.1768,0.1768,0.1768,0.174,0.1739,0.1739,0,0,0,0,0,0,0,0,0,0,0,0,0,0.1842,0.1865,0.1824,0.1808,0.1806,0.1796,0.1796,0.1795,0.1768,0.1768,0.1768,0.1767,0.174,0.1739,0.1739,0.1739,0,0,0.1736,0.1736,0,0,0,0,0,0,0,0,0.1844,0.1841,0.1811,0.1809,0.1807,0.1787,0.1801,0.1777,0.1768,0.1781,0.1768,0.1767,0.1757,0.1755,0.1748,0.1738,0.1736,0.1736,0.1735,0.1735,0.1735,0,0,0,0,0,0,0,0.1845,0.1842,0.1811,0.181,0.1808,0.1807,0.1803,0.1796,0.1769,0.178,0.1778,0.1778,0.1756,0.1748,0.1747,0.1736,0.1736,0.1735,0.1735,0.1734,0.1766,0.1768,0,0,0,0,0,0,0.1852,0.1843,0.1812,0.181,0.1827,0.1807,0.1802,0.1792,0.1769,0.1766,0.1778,0.1777,0.175,0.1748,0.1746,0.1787,0.1735,0.1734,0.1734,0.1765,0.1767,0.1768,0,0,0,0,0,0,0.1853,0.1849,0.1813,0.1828,0.1824,0.1806,0.1795,0.1792,0.1788,0.1769,0.1765,0.1779,0.175,0.1747,0.175,0.1784,0.1734,0.1733,0.1763,0.1765,0.1767,0.1842,0,0,0,0,0,0,0.1854,0.1849,0.1847,0.1828,0.1823,0.1816,0.1796,0.1792,0.1789,0.1787,0.1768,0.1765,0.1749,0.1751,0.1749,0.1782,0.1732,0.1762,0.1764,0.1767,0.1837,0.1846,0.1853,0,0,0,0,0,0.1855,0.1854,0.1847,0.1843,0.1819,0.1817,0.1814,0.18,0.179,0.1794,0.1783,0.1766,0.1766,0.1751,0.1748,0.1782,0.176,0.1764,0.1766,0.1834,0.1844,0.1853,0,0,0,0,0,0,0.1872,0.1851,0.1842,0.1834,0.1831,0.1813,0.1815,0.1806,0.1799,0.1796,0.1775,0.1772,0.1792,0.1774,0.1758,0.1799,0.1764,0.1766,0.1816,0.1826,0.1833,0.1869,0.1732,0,0,0,0,0,0.1875,0.1866,0.1853,0.1848,0.1847,0.1833,0.183,0.1822,0.1813,0.1809,0.1796,0.1791,0.1802,0.1802,0.1801,0.1816,0.1831,0.1838,0.1846,0.1853,0.1881,0.1939,0.1956,0.1778,0.1778,0.1778,0,0,0.1879,0.1868,0.1863,0.1852,0.1845,0.1856,0.183,0.1831,0.1848,0.1808,0.1823,0.1815,0.1812,0.1835,0.1843,0.1824,0.1907,0.1857,0.1863,0.1888,0.1944,0.1962,0.1978,0.178,0.178,0.1779,0,0,0.1892,0.1876,0.1878,0.188,0.1877,0.1873,0.1877,0.1865,0.1869,0.188,0.1868,0.1886,0.1877,0.1896,0.1904,0.1955,0.1948,0.1947,0.2016,0.2072,0.2087,0.2101,0.2127,0.2143,0.195,0.195,0.195,0,0.1902,0.19,0.1881,0.1892,0.1904,0.1886,0.1906,0.1911,0.1904,0.1925,0.1895,0.1932,0.1918,0.1983,0.1998,0.1977,0.1995,0.1978,0.2084,0.2098,0.2112,0.2135,0.2151,0.1954,0.1954,0.1953,0.1953,0,0.1918,0.1924,0.193,0.1938,0.195,0.1962,0.1972,0.1987,0.1986,0.1995,0.2047,0.2036,0.2061,0.2062,0.2044,0.2135,0.2112,0.2089,0.2064,0.2135,0.2153,0.2169,0.196,0.1958,0.1957,0.1956,0,0,0.1921,0.1937,0.194,0.196,0.1977,0.1989,0.2033,0.2073,0.2114,0.2119,0.2181,0.2204,0.2198,0.2208,0.2194,0.2244,0.2335,0.221,0.2211,0.2242,0.2447,0.2343,0.235,0.2331,0.2335,0.2338,0.2417,0,0.1943,0.1973,0.198,0.2025,0.2046,0.2064,0.2109,0.2148,0.2173,0.2225,0.2253,0.2292,0.2254,0.2266,0.2317,0.233,0.2383,0.2315,0.2369,0.2371,0.2276,0.2368,0.2198,0.2247,0.2432,0.2435,0.2437,0,0.1958,0.1979,0.2021,0.2078,0.209,0.2119,0.2197,0.2236,0.2313,0.2334,0.2391,0.2397,0.2472,0.242,0.2513,0.247,0.2476,0.2485,0.2488,0.2384,0.2298,0.2209,0.2269,0.2171,0.2461,0.2459,0.2457,0,0.1968,0.2013,0.205,0.2066,0.2123,0.2161,0.2198,0.2271,0.2319,0.2407,0.2446,0.2523,0.256,0.2602,0.2601,0.2568,0.2698,0.2644,0.2567,0.2558,0.2422,0.2394,0.2401,0.2737,0.2737,0.2737,0.2737,0,0.199,0.2021,0.2056,0.2078,0.2137,0.2176,0.225,0.2301,0.2385,0.245,0.2497,0.2561,0.2612,0.267,0.2662,0.2663,0.2744,0.2612,0.259,0.2437,0.2412,0.2324,0.2294,0.274,0.2739,0.2739,0.2738,0,0.1998,0.2017,0.2065,0.2124,0.214,0.2186,0.2264,0.2315,0.2395,0.2484,0.2515,0.2619,0.2681,0.2713,0.2785,0.2728,0.2639,0.2723,0.2523,0.2476,0.2264,0.2244,0.2183,0.2115,0.2644,0.2643,0.2641,0,0.2004,0.2026,0.2085,0.2106,0.2131,0.2191,0.2227,0.2309,0.236,0.2509,0.2549,0.2653,0.2682,0.2739,0.2682,0.2656,0.2591,0.2486,0.2392,0.226,0.2224,0.2143,0.2086,0.2238,0.2234,0.223,0.2227,0,0.2025,0.2043,0.2082,0.2116,0.2149,0.2188,0.2244,0.2281,0.2383,0.2446,0.2539,0.2578,0.2617,0.2515,0.2482,0.2442,0.2312,0.2403,0.2336,0.1978,0.1825,0.1744,0.2166,0.2192,0.2196,0.2198,0.22,0.2202,0.204,0.2066,0.2103,0.2131,0.2155,0.2168,0.217,0.2226,0.228,0.233,0.2442,0.2413,0.2352,0.2261,0.2226,0.2009,0.2069,0.1887,0.1898,0.1846,0.1709,0.2042,0.1993,0.1995,0.1997,0.1999,0.2,0,0.2055,0.2078,0.2108,0.2126,0.2108,0.2134,0.216,0.2133,0.2136,0.2174,0.22,0.2054,0.1918,0.1845,0.1637,0.1515,0.1443,0.1456,0.1316,0.1306,0.1656,0.1563,0.1333,0.1333,0.1333,0.1333,0.1333,0.1333,0.207,0.2092,0.2097,0.2064,0.2052,0.1996,0.198,0.1952,0.1938,0.1825,0.1705,0.1679,0.1574,0.1385,0.1187,0.1146,0.1052,0.0952,0.1023,0.1263,0.1304,0.1343,0.1248,0.0956,0.0956,0.0563,0.0559,0.0557]},{"header":{"parameterUnit":"m.s-1","parameterCategory":2,"la1":30.2991,"la2":30.254,"lo1":-89.0895,"lo2":-89.0444,"dy":0.0017,"dx":0.0017,"nx":28,"ny":28,"refTime":"2025-08-10T03:00:00:Z","depth":"0","parameterNumber":3,"parameterNumberName":"V-component_of_CURRENTS"},"data":[0,0,0,0,0,0,0,0,0,0,0,0,0,0,0,0,0,0,0,0,0,0,0,0,0,0,0,0,0,0,0,0,0,0,0,0,0,0,0,0,0,0,0,0,0,0,0,0,0,0,0,0,0,0,0,0,0,0,0.0022,0.0022,0,0.0033,0.0033,0.0033,0.0036,0.0036,0.0036,0.0036,0.0035,0.0035,0.0035,0,0,0,0,0,0,0,0,0,0,0,0,0,-0.0012,-0.0012,0.0022,0.0022,0.0022,0.0033,0.0033,0.0033,0.0036,0.0036,0.0036,0.0036,0.0035,0.0035,0.0035,0,0,0,0,0,0,0,0,0,0,0,0,0,0.0,-0.0012,0.0022,0.0025,0.0026,0.0033,0.0033,0.0033,0.0036,0.0036,0.0036,0.0036,0.0035,0.0035,0.0035,0.0035,0,0,0.0035,0.0035,0,0,0,0,0,0,0,0,-0.0,0.0002,0.0025,0.0025,0.0026,0.0034,0.0021,0.0034,0.0036,0.0031,0.0036,0.0036,0.0034,0.0034,0.0035,0.0035,0.0035,0.0035,0.0035,0.0035,0.0035,0,0,0,0,0,0,0,-0.0001,0.0001,0.0025,0.0025,0.0026,0.0021,0.0023,0.0023,0.0032,0.0032,0.0032,0.0035,0.0034,0.0035,0.0035,0.0035,0.0035,0.0035,0.0035,0.0035,0.0039,0.0039,0,0,0,0,0,0,-0.0,0.0,0.0025,0.0026,0.0013,0.0022,0.0024,0.0031,0.0032,0.0033,0.0035,0.0035,0.0035,0.0035,0.0035,0.0039,0.0035,0.0035,0.0035,0.0039,0.0039,0.0039,0,0,0,0,0,0,-0.0001,0.0002,0.0025,0.0014,0.0016,0.0023,0.003,0.0031,0.0034,0.0035,0.0035,0.0037,0.0035,0.0035,0.004,0.0039,0.0035,0.0035,0.0039,0.0039,0.0039,0.0044,0,0,0,0,0,0,-0.0002,0.0002,0.0005,0.0014,0.0017,0.0032,0.003,0.0031,0.0035,0.0036,0.0036,0.0036,0.0035,0.004,0.004,0.0039,0.0035,0.0039,0.0039,0.0039,0.0044,0.0044,0.0045,0,0,0,0,0,-0.0003,0.0004,0.0005,0.0008,0.0022,0.0033,0.0034,0.0038,0.0036,0.0039,0.004,0.0036,0.0041,0.004,0.004,0.0039,0.0039,0.0039,0.0039,0.0043,0.0044,0.0045,0,0,0,0,0,0,-0.0011,0.0005,0.0007,0.0018,0.0026,0.0033,0.0038,0.0038,0.0042,0.0042,0.004,0.004,0.0043,0.0042,0.004,0.0041,0.0038,0.0039,0.0042,0.0042,0.0043,0.004,0.0035,0,0,0,0,0,-0.001,0.0,0.0011,0.002,0.0025,0.003,0.0034,0.0038,0.0043,0.0044,0.0045,0.0044,0.0044,0.0044,0.0045,0.0046,0.0049,0.0045,0.0045,0.0046,0.0043,0.0043,0.0044,0.004,0.004,0.004,0,0,-0.0012,-0.0001,0.0004,0.0019,0.0025,0.0035,0.0033,0.0042,0.0046,0.0043,0.0049,0.0048,0.0046,0.0048,0.0049,0.0046,0.0052,0.0046,0.0047,0.0044,0.0044,0.0044,0.0044,0.0041,0.0041,0.0041,0,0,-0.0006,0.0001,0.0013,0.0021,0.0033,0.0038,0.0041,0.0051,0.0051,0.0058,0.0055,0.0053,0.0056,0.0051,0.0049,0.0053,0.0056,0.0055,0.0054,0.0054,0.0054,0.0054,0.0073,0.0075,0.0054,0.0054,0.0054,0,-0.0009,0.0009,0.0017,0.0029,0.0037,0.0041,0.0053,0.0053,0.0062,0.0065,0.0061,0.0064,0.0056,0.0057,0.0053,0.0054,0.0063,0.0051,0.0054,0.0054,0.0055,0.0074,0.0075,0.0054,0.0054,0.0054,0.0054,0,0.0008,0.002,0.0027,0.0046,0.0053,0.0065,0.007,0.0074,0.0074,0.0077,0.008,0.0071,0.0073,0.0067,0.0057,0.0054,0.0065,0.0057,0.0052,0.0055,0.0075,0.0077,0.0054,0.0054,0.0054,0.0054,0,0,0.0011,0.0036,0.0039,0.0052,0.0065,0.0077,0.008,0.0091,0.0104,0.0096,0.0116,0.0089,0.0086,0.0082,0.0072,0.0061,0.0065,0.0056,0.0056,0.0074,0.0083,0.0087,0.009,0.0059,0.0059,0.0059,0.0102,0,0.0024,0.0054,0.0059,0.0083,0.0101,0.0101,0.011,0.0116,0.0122,0.0143,0.0123,0.0139,0.0092,0.0102,0.0078,0.008,0.0067,0.0055,0.0077,0.0078,0.0081,0.0091,0.0124,0.0165,0.0104,0.0104,0.0105,0,0.0042,0.0062,0.0089,0.0114,0.0122,0.0135,0.0159,0.0168,0.0183,0.0188,0.0185,0.0185,0.0173,0.0138,0.0114,0.0112,0.0089,0.0079,0.0081,0.0082,0.0085,0.0149,0.017,0.0124,0.0107,0.0107,0.0107,0,0.0055,0.0083,0.0108,0.0117,0.0143,0.0154,0.017,0.0185,0.0214,0.0229,0.0268,0.0235,0.0266,0.0207,0.0175,0.0149,0.0167,0.0132,0.0113,0.0115,0.0145,0.0148,0.0122,0.0105,0.0105,0.0105,0.0105,0,0.0071,0.0092,0.012,0.0135,0.0176,0.0181,0.0229,0.0234,0.0274,0.0339,0.03,0.0363,0.0286,0.029,0.0214,0.0185,0.0196,0.0117,0.0122,0.0149,0.0152,0.0114,0.0076,0.0107,0.0106,0.0106,0.0106,0,0.0086,0.0099,0.0135,0.0168,0.0186,0.0217,0.0284,0.0327,0.0348,0.044,0.0456,0.0484,0.0495,0.0417,0.0368,0.0274,0.0197,0.0202,0.0248,0.0255,0.016,0.0122,0.0103,0.0066,0.0177,0.0177,0.0177,0,0.0098,0.0118,0.0168,0.0207,0.0227,0.0282,0.0334,0.0363,0.0425,0.0532,0.0595,0.0638,0.0695,0.0619,0.0474,0.0353,0.0264,0.0276,0.0205,0.0163,0.0125,0.0096,0.0063,0.026,0.0261,0.0261,0.0262,0,0.0128,0.0144,0.0178,0.0256,0.0315,0.0386,0.0464,0.0525,0.0592,0.0687,0.0829,0.0887,0.0838,0.0761,0.0577,0.0469,0.0243,0.0285,0.0232,0.0175,0.0154,0.012,0.0234,0.0269,0.0268,0.0268,0.0267,0.0267,0.0159,0.019,0.0242,0.0315,0.039,0.0489,0.0555,0.0663,0.0789,0.0946,0.1006,0.1116,0.0979,0.0751,0.0607,0.0346,0.0314,0.0249,0.0207,0.0182,0.0134,0.0265,0.0303,0.0303,0.0302,0.0302,0.0302,0,0.0203,0.0241,0.0308,0.0395,0.0484,0.0513,0.0644,0.0728,0.0897,0.1065,0.1204,0.1203,0.1044,0.0808,0.0476,0.0302,0.0211,0.0201,0.0167,0.0133,0.0255,0.0245,0.0285,0.0285,0.0285,0.0285,0.0285,0.0285,0.023,0.0294,0.0322,0.0459,0.0528,0.0641,0.0716,0.0857,0.0986,0.1191,0.1268,0.1314,0.1136,0.0676,0.0342,0.0244,0.0108,0.0095,0.0008,0.0095,0.0096,0.0097,0.0079,0.0083,0.0083,-0.0085,-0.0087,-0.0088]}],[{"header":{"parameterUnit":"m.s-1","parameterCategory":2,"la1":30.2991,"la2":30.254,"lo1":-89.0895,"lo2":-89.0444,"dy":0.0017,"dx":0.0017,"nx":28,"ny":28,"refTime":"2025-08-10T03:00:00:Z","depth":"2","parameterNumber":2,"parameterNumberName":"U-component_of_CURRENTS"},"data":[0,0,0,0,0,0,0,0,0,0,0,0,0,0,0,0,0,0,0,0,0,0,0,0,0,0,0,0,0,0,0,0,0,0,0,0,0,0,0,0,0,0,0,0,0,0,0,0,0,0,0,0,0,0,0,0,0,0,0.1728,0.1728,0,0.1715,0.1715,0.1714,0.1701,0.1701,0.1701,0.1701,0.1691,0.1691,0.1691,0,0,0,0,0,0,0,0,0,0,0,0,0,0.1749,0.1749,0.1728,0.1728,0.1728,0.1715,0.1715,0.1714,0.1701,0.1701,0.1701,0.1701,0.1691,0.1691,0.1691,0,0,0,0,0,0,0,0,0,0,0,0,0,0.1737,0.1748,0.1728,0.1721,0.172,0.1715,0.1715,0.1714,0.1701,0.1701,0.1701,0.1701,0.1691,0.1691,0.1691,0.1689,0,0,0.169,0.169,0,0,0,0,0,0,0,0,0.1738,0.1736,0.1722,0.1721,0.1721,0.1711,0.1719,0.1707,0.1701,0.1707,0.1701,0.1701,0.1699,0.1698,0.1694,0.1689,0.1689,0.169,0.1689,0.1689,0.1689,0,0,0,0,0,0,0,0.1738,0.1736,0.1721,0.1722,0.1721,0.1721,0.1719,0.1716,0.1702,0.1706,0.1706,0.1707,0.1699,0.1694,0.1693,0.1688,0.169,0.1689,0.1689,0.1689,0.1727,0.1728,0,0,0,0,0,0,0.1743,0.1737,0.1722,0.1721,0.1731,0.1721,0.1719,0.1713,0.1702,0.1701,0.1707,0.1706,0.1695,0.1694,0.1693,0.1735,0.1689,0.1689,0.1689,0.1726,0.1727,0.1728,0,0,0,0,0,0,0.1743,0.1741,0.1722,0.1731,0.1728,0.1721,0.1714,0.1713,0.1715,0.1703,0.1701,0.1712,0.1694,0.1693,0.1702,0.1733,0.1689,0.1688,0.1724,0.1726,0.1728,0.1791,0,0,0,0,0,0,0.1744,0.1741,0.1742,0.1731,0.1728,0.1728,0.1715,0.1713,0.1716,0.1715,0.1706,0.1705,0.1694,0.1702,0.1701,0.1732,0.1688,0.1723,0.1725,0.1727,0.1788,0.1795,0.1801,0,0,0,0,0,0.1744,0.1745,0.1742,0.1741,0.1728,0.1729,0.1727,0.1721,0.1716,0.1721,0.1718,0.1706,0.1716,0.1703,0.1701,0.1732,0.1721,0.1724,0.1727,0.1785,0.1794,0.1801,0,0,0,0,0,0,0.1755,0.1744,0.174,0.1737,0.1738,0.1727,0.1731,0.1727,0.1727,0.1728,0.1714,0.1713,0.1735,0.1723,0.1708,0.1751,0.172,0.1722,0.1764,0.1772,0.1779,0.1787,0.1688,0,0,0,0,0,0.1758,0.1755,0.1748,0.1749,0.1749,0.1742,0.1743,0.174,0.1737,0.1736,0.1731,0.1732,0.1744,0.1748,0.175,0.1768,0.177,0.1789,0.1796,0.1802,0.1808,0.1848,0.1859,0.1737,0.1737,0.1737,0,0,0.1762,0.1757,0.1755,0.1751,0.175,0.1757,0.1742,0.1747,0.176,0.1736,0.1751,0.1753,0.1754,0.1779,0.1788,0.1772,0.1837,0.1806,0.1811,0.1814,0.1852,0.1864,0.1874,0.1739,0.1739,0.1739,0,0,0.1771,0.1765,0.1767,0.177,0.1773,0.1772,0.1777,0.1773,0.1779,0.1793,0.1788,0.181,0.1813,0.1829,0.1836,0.1881,0.1872,0.1883,0.1925,0.1964,0.1974,0.1983,0.1996,0.2006,0.1887,0.1887,0.1887,0,0.1779,0.1776,0.1771,0.1777,0.1783,0.1782,0.1792,0.1801,0.1802,0.1814,0.1807,0.1842,0.1842,0.1887,0.1907,0.1899,0.1908,0.1894,0.1974,0.1983,0.1991,0.2002,0.2013,0.1891,0.189,0.189,0.189,0,0.1786,0.1791,0.1795,0.1802,0.1811,0.1819,0.1831,0.1844,0.1852,0.1863,0.1905,0.1914,0.1939,0.1948,0.1942,0.2007,0.1989,0.1978,0.1954,0.2008,0.2015,0.2025,0.1895,0.1894,0.1893,0.1892,0,0,0.1786,0.1798,0.1801,0.1809,0.1824,0.1831,0.186,0.1885,0.1917,0.1931,0.1978,0.2008,0.2021,0.2031,0.2036,0.2069,0.2137,0.2053,0.2054,0.2068,0.221,0.2138,0.2141,0.2144,0.2146,0.2147,0.219,0,0.1796,0.1809,0.1817,0.184,0.1847,0.1863,0.19,0.1927,0.1951,0.1998,0.2027,0.2074,0.2052,0.2082,0.2114,0.2135,0.2165,0.2125,0.2154,0.2154,0.2086,0.2151,0.1944,0.196,0.2199,0.22,0.2202,0,0.1797,0.1806,0.1827,0.1861,0.187,0.1894,0.1945,0.1976,0.204,0.2067,0.2113,0.2138,0.2199,0.2176,0.2237,0.2213,0.222,0.2227,0.2228,0.2146,0.2101,0.1946,0.1968,0.2217,0.2216,0.2215,0.2214,0,0.1787,0.1813,0.1831,0.184,0.1884,0.1909,0.1938,0.1997,0.2032,0.2116,0.2155,0.2221,0.2264,0.2293,0.2301,0.2284,0.2357,0.2333,0.227,0.2263,0.2084,0.2059,0.2381,0.2381,0.2381,0.2381,0.2381,0,0.1784,0.1799,0.1832,0.1842,0.1884,0.1915,0.1974,0.2013,0.2086,0.2131,0.2195,0.2235,0.2299,0.2338,0.2338,0.233,0.2387,0.229,0.228,0.2099,0.2075,0.2291,0.228,0.2382,0.2382,0.2382,0.2381,0,0.1767,0.1789,0.181,0.1858,0.1878,0.1906,0.1976,0.2014,0.2091,0.2152,0.2185,0.2266,0.2314,0.2355,0.2406,0.2367,0.2375,0.2355,0.2126,0.2088,0.2245,0.2237,0.2298,0.2296,0.2294,0.2293,0.2292,0,0.1757,0.177,0.1811,0.1826,0.1849,0.1898,0.1934,0.2008,0.2034,0.2146,0.2161,0.2252,0.2268,0.2316,0.2286,0.2282,0.2345,0.2086,0.2017,0.2258,0.2242,0.2236,0.2231,0.1801,0.1796,0.1792,0.1789,0,0.1743,0.1763,0.1781,0.1806,0.1836,0.1863,0.1905,0.1921,0.2004,0.2042,0.2075,0.2107,0.2162,0.2059,0.2076,0.2042,0.2072,0.2001,0.2329,0.1855,0.1793,0.1776,0.1786,0.1752,0.1755,0.1758,0.176,0.1761,0.1737,0.1734,0.1756,0.1772,0.1805,0.1797,0.1782,0.1809,0.1819,0.1825,0.1917,0.189,0.1912,0.1822,0.1754,0.1711,0.1867,0.1769,0.178,0.1796,0.1732,0.1671,0.1593,0.1596,0.1598,0.16,0.1602,0,0.1705,0.1697,0.1716,0.1713,0.171,0.1751,0.1739,0.1689,0.1633,0.1661,0.1656,0.1506,0.1431,0.1471,0.1339,0.133,0.1303,0.1273,0.1218,0.1256,0.129,0.1198,0.0918,0.0916,0.0914,0.0913,0,0,0.1684,0.1662,0.1651,0.161,0.162,0.1553,0.1521,0.1454,0.1429,0.1331,0.1288,0.1375,0.1431,0.1165,0.1117,0.0999,0.1122,0.095,0.1499,0.1475,0.1506,0.1577,0.1479,0,0,0,0,0]},{"header":{"parameterUnit":"m.s-1","parameterCategory":2,"la1":30.2991,"la2":30.254,"lo1":-89.0895,"lo2":-89.0444,"dy":0.0017,"dx":0.0017,"nx":28,"ny":28,"refTime":"2025-08-10T03:00:00:Z","depth":"2","parameterNumber":3,"parameterNumberName":"V-component_of_CURRENTS"},"data":[0,0,0,0,0,0,0,0,0,0,0,0,0,0,0,0,0,0,0,0,0,0,0,0,0,0,0,0,0,0,0,0,0,0,0,0,0,0,0,0,0,0,0,0,0,0,0,0,0,0,0,0,0,0,0,0,0,0,0.0104,0.0105,0,0.0113,0.0113,0.0113,0.0111,0.0111,0.0111,0.0111,0.0109,0.0109,0.0109,0,0,0,0,0,0,0,0,0,0,0,0,0,0.0074,0.0075,0.0104,0.0105,0.0105,0.0113,0.0113,0.0113,0.0111,0.0111,0.0111,0.0111,0.0109,0.0109,0.0109,0,0,0,0,0,0,0,0,0,0,0,0,0,0.0085,0.0075,0.0104,0.0105,0.0105,0.0113,0.0113,0.0113,0.0111,0.0111,0.0111,0.0111,0.0109,0.0109,0.0109,0.0113,0,0,0.0109,0.0109,0,0,0,0,0,0,0,0,0.0084,0.0086,0.0105,0.0105,0.0105,0.0111,0.0101,0.0113,0.0111,0.0109,0.0111,0.0111,0.0109,0.0109,0.0111,0.0113,0.0113,0.0109,0.0109,0.011,0.011,0,0,0,0,0,0,0,0.0084,0.0086,0.0107,0.0105,0.0105,0.0101,0.0102,0.0103,0.0109,0.0109,0.0109,0.011,0.0109,0.0111,0.0111,0.0113,0.0109,0.0109,0.011,0.011,0.0123,0.0124,0,0,0,0,0,0,0.0084,0.0085,0.0107,0.0108,0.0095,0.0101,0.0103,0.0109,0.0109,0.011,0.0111,0.011,0.0111,0.0111,0.0111,0.0125,0.011,0.011,0.011,0.0123,0.0123,0.0124,0,0,0,0,0,0,0.0084,0.0087,0.0107,0.0096,0.0099,0.0102,0.0109,0.0109,0.0111,0.0111,0.0111,0.0112,0.011,0.011,0.0117,0.0124,0.011,0.011,0.0123,0.0123,0.0124,0.0147,0,0,0,0,0,0,0.0083,0.0086,0.009,0.0097,0.0099,0.0115,0.0109,0.011,0.0112,0.0112,0.0112,0.0112,0.011,0.0117,0.0117,0.0124,0.011,0.0122,0.0123,0.0123,0.0146,0.0149,0.0151,0,0,0,0,0,0.0082,0.009,0.009,0.0093,0.0105,0.0115,0.0116,0.0117,0.0113,0.0117,0.0118,0.0112,0.012,0.0117,0.0117,0.0125,0.0122,0.0123,0.0123,0.0145,0.0148,0.0151,0,0,0,0,0,0,0.0078,0.0091,0.0091,0.0102,0.0109,0.0115,0.0119,0.0118,0.0122,0.0121,0.0117,0.0118,0.0126,0.0121,0.0118,0.013,0.0119,0.012,0.0136,0.0139,0.0141,0.0156,0.011,0,0,0,0,0,0.0079,0.0089,0.0098,0.0107,0.0111,0.0114,0.0117,0.0119,0.0124,0.0125,0.0125,0.0125,0.0129,0.0131,0.0132,0.014,0.0135,0.0144,0.0146,0.0148,0.0161,0.0164,0.0168,0.0126,0.0126,0.0126,0,0,0.0079,0.0088,0.0093,0.0106,0.0111,0.0127,0.0116,0.0124,0.0139,0.0124,0.014,0.0133,0.0132,0.0142,0.0145,0.014,0.0154,0.0149,0.0151,0.0162,0.0165,0.0169,0.0173,0.0126,0.0126,0.0126,0,0,0.009,0.0094,0.0107,0.0117,0.0128,0.0134,0.0137,0.0144,0.0148,0.016,0.0154,0.0154,0.0157,0.0161,0.0163,0.0179,0.0165,0.0174,0.0199,0.0201,0.0205,0.0208,0.0192,0.0194,0.0175,0.0175,0.0175,0,0.0089,0.0113,0.0112,0.013,0.0146,0.0139,0.0163,0.0166,0.0174,0.0187,0.0168,0.018,0.017,0.0192,0.0193,0.0185,0.0178,0.0189,0.0205,0.0208,0.0211,0.0194,0.0195,0.0176,0.0176,0.0176,0.0176,0,0.0115,0.0134,0.0143,0.0169,0.0182,0.02,0.021,0.0221,0.022,0.0225,0.024,0.0223,0.0231,0.0222,0.021,0.0229,0.0213,0.0207,0.0199,0.0217,0.0197,0.0198,0.0178,0.0177,0.0177,0.0177,0,0,0.012,0.0156,0.016,0.0187,0.0208,0.0227,0.0251,0.0281,0.0307,0.0294,0.0324,0.0309,0.0293,0.0294,0.0274,0.027,0.0267,0.0247,0.0246,0.0233,0.0261,0.0242,0.0241,0.0265,0.0265,0.0266,0.0233,0,0.0145,0.0192,0.0203,0.0253,0.0284,0.0293,0.0322,0.0344,0.0352,0.0376,0.0355,0.0368,0.0323,0.0323,0.0311,0.0288,0.0274,0.0276,0.0245,0.0244,0.0227,0.0243,0.0264,0.0236,0.0234,0.0234,0.0234,0,0.0173,0.0205,0.0257,0.0316,0.033,0.0355,0.0412,0.0437,0.0461,0.0466,0.0466,0.0446,0.0436,0.0391,0.0354,0.0357,0.0311,0.0283,0.0281,0.0261,0.0228,0.0222,0.0238,0.0236,0.0236,0.0236,0.0236,0,0.0196,0.0249,0.0297,0.0315,0.037,0.0399,0.043,0.0465,0.0508,0.0522,0.0547,0.0521,0.0516,0.0463,0.0386,0.0374,0.0342,0.0319,0.0256,0.0253,0.0264,0.0262,0.0293,0.0293,0.0293,0.0293,0.0293,0,0.0231,0.027,0.0311,0.034,0.0406,0.043,0.0501,0.0525,0.0573,0.0634,0.0591,0.0622,0.0536,0.0501,0.0418,0.0342,0.0363,0.0268,0.0251,0.027,0.0269,0.0268,0.0265,0.0292,0.0292,0.0292,0.0292,0,0.0256,0.0278,0.0341,0.0399,0.042,0.047,0.0555,0.061,0.0639,0.0715,0.0723,0.0709,0.0661,0.0565,0.0481,0.0393,0.0317,0.0279,0.0295,0.0281,0.0213,0.0212,0.0212,0.0211,0.0211,0.021,0.021,0,0.0276,0.0307,0.0382,0.0423,0.0451,0.0524,0.058,0.0637,0.0705,0.0774,0.0819,0.0789,0.0779,0.0636,0.0492,0.035,0.0321,0.0257,0.0239,0.0225,0.0209,0.0209,0.0209,0.0253,0.0253,0.0253,0.0253,0,0.0319,0.034,0.0394,0.0471,0.0533,0.0615,0.07,0.0764,0.084,0.0897,0.0958,0.095,0.0824,0.0691,0.0491,0.039,0.0281,0.0251,0.0253,0.027,0.0262,0.0246,0.0245,0.0253,0.0253,0.0253,0.0253,0.0253,0.0351,0.0396,0.0458,0.0534,0.0604,0.0696,0.0767,0.0856,0.0957,0.1035,0.104,0.1018,0.0879,0.0622,0.046,0.028,0.0293,0.0214,0.0215,0.0216,0.0226,0.0218,0.0201,0.0201,0.0201,0.0201,0.02,0,0.0398,0.0445,0.0516,0.0609,0.0683,0.0716,0.0841,0.0908,0.1013,0.1063,0.1096,0.0945,0.0812,0.0638,0.039,0.024,0.0224,0.0171,0.0197,0.0199,0.0201,0.021,0.0181,0.018,0.0179,0.0178,0,0,0.0425,0.05,0.0534,0.0654,0.0716,0.0819,0.0887,0.0973,0.1031,0.1058,0.1041,0.1027,0.0852,0.0657,0.0471,0.0328,0.0285,0.0285,0.0321,0.0378,0.0381,0.0251,0.0272,0,0,0,0,0]}],[{"header":{"parameterUnit":"m.s-1","parameterCategory":2,"la1":30.2991,"la2":30.254,"lo1":-89.0895,"lo2":-89.0444,"dy":0.0017,"dx":0.0017,"nx":28,"ny":28,"refTime":"2025-08-10T03:00:00:Z","depth":"4","parameterNumber":2,"parameterNumberName":"U-component_of_CURRENTS"},"data":[0,0,0,0,0,0,0,0,0,0,0,0,0,0,0,0,0,0,0,0,0,0,0,0,0,0,0,0,0,0,0,0,0,0,0,0,0,0,0,0,0,0,0,0,0,0,0,0,0,0,0,0,0,0,0,0,0,0,0.1084,0.1084,0,0.111,0.111,0.111,0.1143,0.1143,0.1144,0.1145,0.1191,0.1191,0.1192,0,0,0,0,0,0,0,0,0,0,0,0,0,0.1059,0.1059,0.1084,0.1084,0.1085,0.111,0.111,0.111,0.1143,0.1143,0.1144,0.1145,0.1191,0.1191,0.1192,0,0,0,0,0,0,0,0,0,0,0,0,0,0.1074,0.1059,0.1084,0.1105,0.1108,0.111,0.111,0.111,0.1142,0.1143,0.1144,0.1145,0.119,0.1191,0.1192,0.1178,0,0,0.1195,0.1195,0,0,0,0,0,0,0,0,0.1073,0.1075,0.1102,0.1104,0.1106,0.1125,0.1118,0.1134,0.1142,0.1128,0.1145,0.1146,0.1171,0.1174,0.1174,0.118,0.1182,0.1195,0.1196,0.1196,0.1196,0,0,0,0,0,0,0,0.1072,0.1074,0.1093,0.1102,0.1105,0.1112,0.1115,0.1121,0.1143,0.1129,0.1132,0.1137,0.1172,0.1173,0.1175,0.1183,0.1195,0.1196,0.1196,0.1197,0.1263,0.1264,0,0,0,0,0,0,0.1071,0.1073,0.1092,0.1094,0.1094,0.1112,0.1115,0.1117,0.1142,0.1147,0.1136,0.1138,0.1171,0.1174,0.1177,0.1228,0.1196,0.1197,0.1197,0.1261,0.1263,0.1264,0,0,0,0,0,0,0.1071,0.1072,0.1091,0.1085,0.1089,0.1112,0.1113,0.1117,0.1143,0.1148,0.1153,0.116,0.1172,0.1176,0.1206,0.1228,0.1197,0.1198,0.126,0.1262,0.1264,0.1288,0,0,0,0,0,0,0.107,0.1072,0.1084,0.1085,0.1089,0.1108,0.1112,0.1117,0.1143,0.1147,0.117,0.1174,0.1173,0.1205,0.1207,0.1229,0.1199,0.1258,0.1261,0.1263,0.1286,0.1291,0.1295,0,0,0,0,0,0.1069,0.1076,0.1084,0.1088,0.1101,0.1108,0.1111,0.113,0.1144,0.1156,0.1176,0.1174,0.1221,0.1206,0.1208,0.1231,0.1257,0.126,0.1263,0.1284,0.129,0.1295,0,0,0,0,0,0,0.1072,0.108,0.109,0.11,0.1113,0.1115,0.1131,0.1142,0.1166,0.1179,0.1184,0.1189,0.1225,0.1226,0.1209,0.1259,0.1241,0.1244,0.1256,0.1262,0.1266,0.1255,0.12,0,0,0,0,0,0.1078,0.1088,0.1095,0.1108,0.1115,0.1128,0.1139,0.1151,0.1166,0.1179,0.1195,0.1215,0.1233,0.1246,0.126,0.1282,0.1289,0.1301,0.1306,0.1309,0.1303,0.1341,0.1348,0.1273,0.1273,0.1273,0,0,0.1084,0.109,0.1097,0.111,0.1122,0.1129,0.1138,0.116,0.1172,0.1179,0.1212,0.1232,0.1243,0.1271,0.1288,0.1278,0.1336,0.1313,0.1315,0.1307,0.1344,0.1351,0.1358,0.1275,0.1275,0.1274,0,0,0.1088,0.1106,0.1113,0.1122,0.1144,0.1149,0.1161,0.1178,0.1197,0.1223,0.1238,0.1269,0.1295,0.1306,0.1314,0.135,0.1359,0.1367,0.1378,0.1415,0.1421,0.1427,0.1449,0.1457,0.1368,0.1368,0.1368,0,0.1098,0.1101,0.1118,0.1124,0.1133,0.1159,0.1165,0.1183,0.1211,0.123,0.1241,0.1294,0.1305,0.1336,0.1351,0.1358,0.1381,0.1355,0.142,0.1425,0.1431,0.1452,0.146,0.137,0.1369,0.1369,0.1369,0,0.1095,0.1108,0.1114,0.1128,0.1142,0.1155,0.1175,0.1203,0.1232,0.125,0.13,0.132,0.1352,0.1367,0.1368,0.1415,0.1421,0.1422,0.1403,0.1439,0.146,0.1468,0.1372,0.1371,0.1371,0.137,0,0,0.1087,0.1108,0.1113,0.112,0.1146,0.1154,0.1183,0.1211,0.1242,0.1279,0.1319,0.135,0.1378,0.1389,0.1407,0.1436,0.1492,0.1449,0.145,0.1465,0.1577,0.1459,0.1456,0.1515,0.1517,0.1518,0.1578,0,0.1082,0.1089,0.1103,0.1118,0.1122,0.1155,0.1178,0.1214,0.1254,0.1303,0.1339,0.1388,0.1382,0.1418,0.1443,0.1489,0.1513,0.1475,0.1544,0.1546,0.1432,0.1461,0.1522,0.1583,0.1585,0.1586,0.1587,0,0.1065,0.1075,0.1085,0.1113,0.1121,0.114,0.1191,0.1218,0.1286,0.1325,0.1376,0.1415,0.1469,0.1464,0.1537,0.1521,0.1547,0.1571,0.1574,0.1456,0.1441,0.154,0.1601,0.16,0.1599,0.1598,0.1597,0,0.1037,0.106,0.107,0.1078,0.1115,0.114,0.117,0.1231,0.1265,0.1354,0.1398,0.146,0.1513,0.1553,0.1594,0.1585,0.167,0.1663,0.1574,0.1567,0.1644,0.1637,0.1706,0.1706,0.1705,0.1705,0.1705,0,0.1006,0.1018,0.1065,0.107,0.1099,0.1134,0.1181,0.1225,0.1298,0.134,0.1416,0.1457,0.1544,0.1597,0.1618,0.1612,0.169,0.1572,0.1572,0.1654,0.1648,0.1649,0.1642,0.1707,0.1707,0.1707,0.1706,0,0.0962,0.0993,0.1008,0.106,0.1084,0.1107,0.118,0.1212,0.1293,0.1354,0.1389,0.1485,0.155,0.1608,0.1684,0.1634,0.1649,0.1627,0.171,0.1715,0.1516,0.1509,0.1529,0.1526,0.1523,0.152,0.1518,0,0.0935,0.094,0.0998,0.1019,0.1047,0.1095,0.1127,0.1205,0.1234,0.135,0.1367,0.147,0.1521,0.1527,0.1597,0.1621,0.1601,0.1593,0.1539,0.1498,0.1498,0.1496,0.1494,0.1513,0.1512,0.1511,0.151,0,0.0885,0.0917,0.0935,0.0975,0.1014,0.104,0.1091,0.1105,0.119,0.1282,0.1311,0.1345,0.1411,0.1456,0.1487,0.15,0.1588,0.156,0.1566,0.1515,0.1478,0.148,0.1482,0.15,0.1501,0.1502,0.1503,0,0.0858,0.0857,0.0892,0.0916,0.0962,0.0963,0.0999,0.1027,0.1064,0.1182,0.1192,0.1296,0.1393,0.1394,0.1423,0.1426,0.14,0.1344,0.1361,0.1373,0.1293,0.1222,0.1161,0,0,0,0,0,0.0824,0.0813,0.083,0.0843,0.0883,0.0907,0.0963,0.0999,0.1087,0.107,0.1122,0.1172,0.1212,0.1269,0.1241,0.1362,0.1412,0.1322,0.1356,0.1439,0.1452,0.1371,0,0,0,0,0,0,0.0798,0.0813,0.0803,0.0779,0.0779,0.0805,0.0837,0.0895,0.0884,0.0985,0.1015,0.1093,0.1156,0.122,0.1219,0.1236,0.1228,0.1388,0.1384,0.1432,0.1444,0.1454,0.1375,0,0,0,0,0]},{"header":{"parameterUnit":"m.s-1","parameterCategory":2,"la1":30.2991,"la2":30.254,"lo1":-89.0895,"lo2":-89.0444,"dy":0.0017,"dx":0.0017,"nx":28,"ny":28,"refTime":"2025-08-10T03:00:00:Z","depth":"4","parameterNumber":3,"parameterNumberName":"V-component_of_CURRENTS"},"data":[0,0,0,0,0,0,0,0,0,0,0,0,0,0,0,0,0,0,0,0,0,0,0,0,0,0,0,0,0,0,0,0,0,0,0,0,0,0,0,0,0,0,0,0,0,0,0,0,0,0,0,0,0,0,0,0,0,0,0.0137,0.0137,0,0.0146,0.0146,0.0146,0.0147,0.0147,0.0147,0.0147,0.0152,0.0153,0.0153,0,0,0,0,0,0,0,0,0,0,0,0,0,0.0113,0.0113,0.0137,0.0137,0.0137,0.0146,0.0146,0.0146,0.0147,0.0147,0.0147,0.0147,0.0152,0.0153,0.0153,0,0,0,0,0,0,0,0,0,0,0,0,0,0.0123,0.0113,0.0137,0.0139,0.0139,0.0146,0.0146,0.0146,0.0147,0.0147,0.0147,0.0147,0.0152,0.0153,0.0153,0.0158,0,0,0.0154,0.0154,0,0,0,0,0,0,0,0,0.0122,0.0124,0.0138,0.0139,0.0139,0.0145,0.0139,0.015,0.0147,0.0144,0.0147,0.0146,0.015,0.015,0.0152,0.0158,0.0159,0.0154,0.0154,0.0154,0.0155,0,0,0,0,0,0,0,0.0121,0.0123,0.0141,0.0138,0.0139,0.0136,0.0137,0.0141,0.0148,0.0144,0.0144,0.0145,0.015,0.0152,0.0153,0.0159,0.0154,0.0154,0.0155,0.0155,0.018,0.0181,0,0,0,0,0,0,0.0121,0.0123,0.014,0.0141,0.013,0.0136,0.0138,0.0143,0.0148,0.0148,0.0145,0.0145,0.0152,0.0152,0.0153,0.0179,0.0154,0.0155,0.0155,0.018,0.018,0.0181,0,0,0,0,0,0,0.012,0.0123,0.014,0.0131,0.0133,0.0137,0.0143,0.0143,0.0147,0.0148,0.0149,0.0149,0.0151,0.0152,0.0163,0.0178,0.0155,0.0155,0.0179,0.018,0.0181,0.0218,0,0,0,0,0,0,0.012,0.0122,0.0127,0.0132,0.0134,0.0148,0.0143,0.0144,0.0148,0.0148,0.0152,0.0152,0.0151,0.0162,0.0163,0.0178,0.0156,0.0179,0.018,0.018,0.0217,0.022,0.0223,0,0,0,0,0,0.0119,0.0127,0.0127,0.0129,0.014,0.0149,0.015,0.0151,0.0148,0.0154,0.0157,0.0152,0.0168,0.0163,0.0164,0.018,0.0178,0.0179,0.018,0.0215,0.0219,0.0223,0,0,0,0,0,0,0.0119,0.0128,0.0128,0.0138,0.0144,0.0149,0.0154,0.0153,0.016,0.0161,0.0159,0.016,0.0175,0.017,0.0164,0.0188,0.0172,0.0173,0.0198,0.0202,0.0205,0.0219,0.0156,0,0,0,0,0,0.0121,0.013,0.0136,0.0144,0.0148,0.0151,0.0154,0.0156,0.0162,0.0164,0.0167,0.0171,0.0179,0.0185,0.0189,0.0203,0.0188,0.0212,0.0216,0.0219,0.023,0.0222,0.0226,0.0184,0.0184,0.0184,0,0,0.0122,0.0129,0.0134,0.0145,0.0149,0.0165,0.0153,0.0162,0.0179,0.0164,0.0187,0.0183,0.0185,0.0203,0.0209,0.0202,0.0219,0.022,0.0223,0.0233,0.0223,0.0227,0.0231,0.0185,0.0185,0.0185,0,0,0.0134,0.0137,0.015,0.0159,0.0168,0.0174,0.0178,0.0185,0.0192,0.0209,0.0205,0.0213,0.0221,0.0231,0.0236,0.026,0.0236,0.0256,0.0289,0.0281,0.0284,0.0287,0.0259,0.0259,0.026,0.026,0.026,0,0.0136,0.0158,0.0155,0.0172,0.0187,0.0181,0.0205,0.0211,0.0222,0.0235,0.0221,0.0242,0.024,0.027,0.0278,0.0271,0.0251,0.0274,0.0286,0.0288,0.0291,0.0261,0.0261,0.0262,0.0262,0.0261,0.0261,0,0.0161,0.018,0.0189,0.0213,0.0227,0.0245,0.0256,0.0269,0.0273,0.0281,0.0303,0.0296,0.031,0.0308,0.0302,0.0323,0.0298,0.0289,0.0276,0.0297,0.0264,0.0264,0.0265,0.0264,0.0263,0.0263,0,0,0.0164,0.0201,0.0205,0.023,0.0254,0.0271,0.03,0.033,0.0354,0.0354,0.0382,0.0391,0.0378,0.0383,0.037,0.0366,0.0358,0.0337,0.0335,0.0311,0.0322,0.0293,0.0288,0.0348,0.0348,0.0348,0.0287,0,0.0189,0.0234,0.0247,0.0297,0.0324,0.0337,0.0368,0.0392,0.0403,0.0423,0.0418,0.0433,0.0409,0.041,0.0404,0.0373,0.036,0.0375,0.0304,0.0302,0.0276,0.0288,0.035,0.0286,0.0286,0.0286,0.0286,0,0.0214,0.0244,0.0296,0.0352,0.0365,0.0394,0.0447,0.0474,0.0498,0.0504,0.0511,0.0494,0.0494,0.0461,0.0421,0.0428,0.0381,0.035,0.0347,0.031,0.0272,0.0264,0.0283,0.0284,0.0284,0.0284,0.0284,0,0.0228,0.0282,0.033,0.0348,0.0404,0.0435,0.0466,0.0501,0.0532,0.055,0.056,0.055,0.054,0.0493,0.0421,0.042,0.036,0.0349,0.0277,0.0273,0.03,0.0298,0.0319,0.0319,0.0319,0.0319,0.0319,0,0.0255,0.0294,0.0342,0.037,0.0431,0.0461,0.0523,0.0548,0.0584,0.0619,0.0599,0.0605,0.0547,0.05,0.0434,0.0348,0.0366,0.0287,0.0263,0.0314,0.0315,0.0298,0.0297,0.0317,0.0317,0.0318,0.0318,0,0.0267,0.0297,0.0355,0.0418,0.0441,0.0485,0.0559,0.0598,0.0625,0.0664,0.0669,0.0647,0.0586,0.0511,0.0427,0.0363,0.0287,0.0249,0.0298,0.0276,0.0199,0.02,0.017,0.0169,0.0168,0.0167,0.0166,0,0.0278,0.0308,0.0383,0.0418,0.0451,0.0517,0.0562,0.0615,0.0653,0.0684,0.0698,0.0655,0.0624,0.048,0.0402,0.0271,0.025,0.02,0.0216,0.0208,0.0187,0.019,0.0193,0.0164,0.0164,0.0163,0.0163,0,0.0298,0.0323,0.0369,0.0436,0.0492,0.0556,0.0621,0.065,0.0704,0.0725,0.0713,0.0646,0.0574,0.0471,0.0365,0.0273,0.0232,0.0187,0.0189,0.0204,0.02,0.0181,0.0185,0.0159,0.0159,0.016,0.016,0,0.0309,0.0338,0.0393,0.0453,0.0518,0.0574,0.0614,0.0656,0.0695,0.0726,0.0716,0.0646,0.0612,0.0471,0.0376,0.0281,0.0259,0.0221,0.0221,0.0225,0.026,0.0264,0.0227,0,0,0,0,0,0.0318,0.0349,0.0404,0.0472,0.0533,0.0571,0.0644,0.0678,0.0723,0.0713,0.0718,0.0649,0.0515,0.0463,0.0363,0.0351,0.024,0.0229,0.0196,0.0136,0.0141,0.0171,0,0,0,0,0,0,0.0323,0.0373,0.0399,0.0471,0.0515,0.0585,0.0631,0.0665,0.0664,0.0689,0.0622,0.0604,0.0478,0.0566,0.0353,0.0328,0.0288,0.0176,0.0173,0.0134,0.0138,0.0142,0.0174,0,0,0,0,0]}]]